User: anonymous
Location: Caltech
(34.1382°N, 118.1253°W)
Time: 22:22:24
(UTC-07:00)
Language:

Cosmos 2333 Rocket - Orbit

View from above orbital plane
View from above orbital plane
View from above satellite
View from above satellite

Ground track
Ground track

The orbit data is extracted from the following two-line orbital elements,

1 24298U 96051B   14211.36083581 -.00000177  00000-0 -69693-4 0  5089
2 24298 070.8660 121.0316 0017807 302.7165 195.9022 14.12471326923165
Epoch (UTC): 30 July 2014 08:39:36
Eccentricity: 0.0017807
inclination: 70.8660°
perigee height: 838 km
apogee height: 864 km
right ascension of ascending node: 121.0316°
argument of perigee: 302.7165°
revolutions per day: 14.12471326
mean anomaly at epoch: 195.9022°
orbit number at epoch: 92316

The dashed part of the orbit path shows where the satellite is in the earth's shadow,  

DLR